{"data":{"norad_id":52274,"epoch":"2026-09-20T03:33:19.804896Z","epoch_age_seconds":89906,"freshness":"FRESH","line1":"1 52274U 22041P   26263.14814589 -.00000924  00000+0 -18029-4 0  9998","line2":"2 52274  53.1603 302.8096 0000892  74.8454 285.2646 15.31699002243906","mean_motion":15.31699002,"eccentricity":8.92e-5,"inclination_deg":53.1603,"raan_deg":302.8096,"arg_perigee_deg":74.8454,"mean_anomaly_deg":285.2646,"bstar":-1.8029e-5,"rev_number":24390,"period_min":94.013249216702,"perigee_km":470.13205011999,"apogee_km":471.35389030667,"semimajor_km":6848.8799702133,"source":"CELESTRAK","updated_at":"2026-09-20T09:00:40.013502Z"}}